{"data":{"norad_id":62916,"intl_designator":"2025-027K","name":"STARLINK-11430 [DTC]","alt_names":[],"object_type":"PAYLOAD","status":"ACTIVE","operator":null,"country":"US","launch_date":"2025-02-08","launch_site_code":"AFETR","launch_vehicle":null,"mission":null,"orbit_class":"UNKNOWN","rcs_meters":null,"size_class":null,"mass_kg":null,"dimensions":null,"purposes":["comms"],"wikipedia_slug":null,"has_3d_model":false,"image_url":null,"decayed_at":null,"tle_current":{"epoch":"2026-09-21T08:58:26.409792Z","epoch_age_seconds":92765,"freshness":"FRESH","line1":"1 62916U 25027K   26264.37391678  .00160965  00000+0  12323-2 0  9993","line2":"2 62916  42.9997 248.5473 0001038 257.8242 102.2510 15.70869723 93967","mean_motion":15.70869723,"eccentricity":0.0001038,"inclination_deg":42.9997,"raan_deg":248.5473,"arg_perigee_deg":257.8242,"mean_anomaly_deg":102.251,"bstar":0.0012323,"rev_number":9396,"period_min":91.668963945013,"perigee_km":355.71106302143,"apogee_km":357.10915500126,"semimajor_km":6734.5471090113,"source":"CELESTRAK","updated_at":"2026-09-22T09:00:49.708294Z"}}}